Location: Ingoldesthorpe
(52.8667°N, 0.5167°E)
Time: 14:40:52
(UTC+00:00)

Cosmos 1238 Rocket - Pass Details

Date: 19 May 2025
Orbit: 356 x 777 km, 82.9° (Epoch: 17 June)

Event Time Altitude Azimuth Distance (km) Brightness Sun altitude
Exits shadow 21:22:01 14° 154° (SSE) 1,438 4.3 -10.0°
Maximum altitude 21:24:40 34° 94° (E) 780 3.3 -10.3°
Drops below altitude 10° 21:27:41 10° 28° (NNE) 1,523 5.5 -10.5°
Sets 21:29:42 0° 18° (NNE) 2,338 6.6 -10.7°
